Christmas Island, Australian Islands

5:41 PM CXT on July 30, 2016 (GMT +0700)
Christmas Island

Weather History for YPXM - February, 2013

Change the Weather History Date:

Monday, February 18, 2013

  Actual Average Record
Temperature  
Mean Temperature 77 °F -  
Max Temperature 81 °F 79 °F 86 °F (2016)
Min Temperature 73 °F 71 °F 32 °F (2007)
Cooling Degree Days 12    
Growing Degree Days 27 (Base 50)    
Moisture  
Dew Point 76 °F    
Average Humidity 98    
Maximum Humidity 100    
Minimum Humidity 92    
Precipitation  
Precipitation 2.83 in - - ()
Sea Level Pressure  
Sea Level Pressure 29.66 in    
Wind  
Wind Speed 6 mph ()    
Max Wind Speed 15 mph    
Max Gust Speed 25 mph    
Visibility 4.5 miles    
Events Rain    
Averages and records for this station are not official NWS values.
T = Trace of Precipitation, MM = Missing Value Source: Averaged Metar Reports

Daily Weather History Graph

Daily Weather History Graph

Search for Another Location

Airport or City:

Trip Planner

Search our weather history database for the weather conditions in past years. The results will help you decide how hot, cold, wet, or windy it might be!

Date:

Astronomy

Feb. 18, 2013 Rise Set
Actual Time 5:59 AM CXT 6:23 PM CXT
Civil Twilight 5:37 AM CXT 6:44 PM CXT
Nautical Twilight 5:12 AM CXT 7:09 PM CXT
Astronomical Twilight 4:47 AM CXT 7:35 PM CXT
Moon 12:27 PM CXT (2/18) No Moon Set
Length of Visible Light 13h 07m
Length of Day
12h 24m
First Quarter, 53% of the Moon is Illuminated
Feb 18
First Quarter
Feb 26
Full
Mar 5
Last Quarter
Mar 12
New
Mar 20
First Quarter

Hourly Weather History & Observations

Time (CXT) Temp. Heat Index Dew Point Humidity Pressure Visibility Wind Dir Wind Speed Gust Speed Precip Events Conditions
12:00 AM 76 °F - 75 °F 96% 29.69 in - NNW 3.5 mph - -  
12:00 AM 77.0 °F - 75.2 °F 94% 29.71 in 6.2 mi NNW 3.5 mph - N/A   Scattered Clouds
1:00 AM 76 °F - 75 °F 97% 29.68 in - Calm Calm - -  
1:00 AM 75.2 °F - 75.2 °F 100% 29.71 in 6.2 mi Calm Calm - N/A   Scattered Clouds
2:00 AM 77.0 °F - 75.2 °F 94% 29.68 in 6.2 mi NNW 5.8 mph - N/A   Overcast
2:12 AM 77.0 °F - 75.2 °F 94% 29.68 in 3.7 mi WNW 4.6 mph - N/A Rain Heavy Rain
2:43 AM 75.2 °F - 75.2 °F 100% 29.68 in 6.2 mi WSW 3.5 mph - N/A Rain Light Rain Showers
3:00 AM 75 °F - 74 °F 98% 29.62 in - WSW 3.5 mph - -   Overcast
3:00 AM 75.2 °F - 75.2 °F 100% 29.65 in 6.2 mi WSW 3.5 mph - N/A Rain Light Rain Showers
4:00 AM 75 °F - 74 °F 96% 29.63 in - Calm Calm - -  
4:00 AM 75.2 °F - 73.4 °F 94% 29.68 in 6.2 mi Calm Calm - N/A   Unknown
5:00 AM 75.2 °F - 73.4 °F 94% 29.68 in 6.2 mi WNW 3.5 mph - N/A   Unknown
5:56 AM 75.2 °F - 73.4 °F 94% 29.68 in 3.7 mi West 2.3 mph - N/A   Unknown
6:00 AM 75 °F - 74 °F 95% 29.65 in 3 mi West 2.3 mph - -  
6:00 AM 75.2 °F - 73.4 °F 94% 29.68 in - West 2.3 mph - N/A   Unknown
6:14 AM 75.2 °F - 73.4 °F 94% 29.68 in 6.2 mi West 3.5 mph - N/A   Unknown
7:00 AM 76 °F - 75 °F 97% 29.66 in - SSW 1.2 mph - -  
7:00 AM 75.2 °F - 75.2 °F 100% 29.68 in 6.2 mi SSW 1.2 mph - N/A   Unknown
8:00 AM 77.0 °F - 77.0 °F 100% 29.68 in 6.2 mi South 5.8 mph - N/A   Unknown
8:21 AM 78.8 °F - 77.0 °F 94% 29.68 in 6.2 mi South 5.8 mph - N/A   Mostly Cloudy
8:35 AM 78.8 °F - 77.0 °F 94% 29.68 in 6.2 mi South 4.6 mph - N/A   Scattered Clouds
9:00 AM 79 °F - 78 °F 95% 29.67 in - South 6.9 mph - -  
9:00 AM 78.8 °F - 78.8 °F 100% 29.71 in 6.2 mi South 6.9 mph - N/A   Scattered Clouds
9:19 AM 80.6 °F 88.1 °F 78.8 °F 94% 29.71 in 6.2 mi SSE 5.8 mph - N/A   Mostly Cloudy
10:00 AM 81 °F - 79 °F 92% 29.68 in - South 5.8 mph - -  
10:00 AM 80.6 °F 88.1 °F 78.8 °F 94% 29.71 in 6.2 mi South 5.8 mph - N/A   Mostly Cloudy
10:18 AM 80.6 °F 88.1 °F 78.8 °F 94% 29.71 in 6.2 mi South 5.8 mph - N/A   Scattered Clouds
11:00 AM 80.6 °F 88.1 °F 78.8 °F 94% 29.71 in 6.2 mi SSE 8.1 mph - N/A   Mostly Cloudy
11:30 AM 80.6 °F 89.3 °F 80.6 °F 100% 29.68 in 6.2 mi SE 9.2 mph - N/A   Mostly Cloudy
12:00 PM 80 °F - 80 °F 99% 29.63 in - SE 8.1 mph - -  
12:00 PM 80.6 °F 89.3 °F 80.6 °F 100% 29.68 in 6.2 mi SE 8.1 mph - N/A   Scattered Clouds
12:15 PM 80.6 °F 89.3 °F 80.6 °F 100% 29.65 in 6.2 mi SE 9.2 mph - N/A Rain Heavy Rain
12:17 PM 78.8 °F - 78.8 °F 100% 29.65 in 3.7 mi SSE 9.2 mph - N/A Rain Heavy Rain
1:00 PM 79 °F - 79 °F 100% 29.61 in - SSE 8.1 mph - -  
1:00 PM 78.8 °F - 78.8 °F 100% 29.65 in 6.2 mi SSE 8.1 mph - N/A   Overcast
1:30 PM 78.8 °F - 78.8 °F 100% 29.62 in 3.7 mi SE 8.1 mph - N/A Rain Rain Showers
2:00 PM 77.0 °F - 77.0 °F 100% 29.62 in 1.4 mi SE 10.4 mph - N/A Rain Heavy Rain Showers
2:19 PM 78.8 °F - 77.0 °F 94% 29.62 in 6.2 mi SE 11.5 mph - N/A Rain Rain
2:23 PM 77.0 °F - 77.0 °F 100% 29.62 in 3.1 mi SE 13.8 mph - N/A Rain Light Rain
2:26 PM 77.0 °F - 77.0 °F 100% 29.62 in 0.6 mi SE 13.8 mph - N/A Rain Light Rain
2:30 PM 77.0 °F - 77.0 °F 100% 29.62 in 0.3 mi SE 15.0 mph - N/A   Drizzle
2:31 PM 77.0 °F - 77.0 °F 100% 29.62 in 0.2 mi SE 15.0 mph - N/A   Drizzle
2:35 PM 77.0 °F - 77.0 °F 100% 29.62 in 0.2 mi SE 12.7 mph - N/A   Drizzle
3:00 PM 77 °F - 76 °F 98% 29.57 in 1 mi ESE 15.0 mph - -  
3:00 PM 77.0 °F - 77.0 °F 100% 29.59 in 0.9 mi ESE 15.0 mph - N/A Rain Heavy Rain Showers
3:50 PM 77.0 °F - 77.0 °F 100% 29.62 in 0.5 mi SE 11.5 mph - N/A Rain Rain Showers
4:00 PM 76 °F - 76 °F 98% 29.58 in - SE 10.4 mph - -  
4:00 PM 75.2 °F - 75.2 °F 100% 29.62 in - SE 10.4 mph - N/A Rain Heavy Rain
5:00 PM 75.2 °F - 75.2 °F 100% 29.62 in - SW 5.8 mph - N/A Rain Heavy Rain
6:00 PM 76 °F - 76 °F 100% 29.61 in 0 mi SSE 10.4 mph - -   Overcast
6:00 PM 75.2 °F - 75.2 °F 100% 29.65 in 0.3 mi SSE 10.4 mph - N/A Rain Rain
6:02 PM 75.2 °F - 75.2 °F 100% 29.65 in 0.2 mi South 10.4 mph - N/A Rain Light Rain
6:07 PM 75.2 °F - 75.2 °F 100% 29.65 in 0.2 mi South 9.2 mph - N/A Rain Rain
6:26 PM 75.2 °F - 75.2 °F 100% 29.65 in 6.2 mi SSW 9.2 mph - N/A Rain Light Rain
7:00 PM 75 °F - 75 °F 100% 29.65 in - SSW 8.1 mph - -  
7:00 PM 75.2 °F - 75.2 °F 100% 29.68 in 6.2 mi SSW 8.1 mph - N/A Rain Light Rain
7:04 PM 75.2 °F - 75.2 °F 100% 29.68 in 6.2 mi SSW 8.1 mph - N/A   Drizzle
7:23 PM 75.2 °F - 75.2 °F 100% 29.68 in 6.2 mi SW 10.4 mph - N/A Rain Light Rain
7:24 PM 75.2 °F - 75.2 °F 100% 29.68 in 6.2 mi SW 10.4 mph - N/A Rain Light Rain
7:36 PM 75.2 °F - 75.2 °F 100% 29.71 in 3.7 mi SSW 10.4 mph - N/A Rain Rain
8:00 PM 75.2 °F - 75.2 °F 100% 29.71 in 3.1 mi SW 11.5 mph 25.3 mph N/A Rain Rain
8:23 PM 75.2 °F - 75.2 °F 100% 29.71 in 6.2 mi SW 11.5 mph - N/A Rain Rain
9:00 PM 75.2 °F - 75.2 °F 100% 29.71 in 6.2 mi SW 10.4 mph - N/A   Drizzle
9:39 PM 75.2 °F - 75.2 °F 100% 29.71 in 6.2 mi WSW 9.2 mph - N/A   Scattered Clouds
9:56 PM 75.2 °F - 75.2 °F 100% 29.71 in 6.2 mi WSW 8.1 mph - N/A   Mostly Cloudy
10:00 PM 75 °F - 75 °F 99% 29.68 in - WSW 9.2 mph - -  
10:00 PM 75.2 °F - 75.2 °F 100% 29.71 in 6.2 mi WSW 9.2 mph - N/A Rain Light Rain Showers
10:32 PM 73.4 °F - 73.4 °F 100% 29.71 in 6.2 mi WSW 9.2 mph - N/A   Scattered Clouds
11:00 PM 75.2 °F - 75.2 °F 100% 29.68 in 6.2 mi WSW 8.1 mph - N/A   Unknown